Regional Weather Roundup
Issued by NWS Lake Charles, LA

Home | Current Version | Previous Version | Text Only | Print | Product List | Glossary On
Versions: 1 2 3 4 5 6 7 8 9 10 11 12 13 14 15 16 17 18 19 20 21 22 23 24 25 26 27 28
000
ASUS44 KLCH 140110
RWRLCH
REGIONAL WEATHER ROUNDUP
NATIONAL WEATHER SERVICE LAKE CHARLES LA
700 PM CST WED DEC 13 2017

Note: "fair" indicates few or no clouds below 12,000 feet with no
significant weather and/or obstructions to visibility.


ACROSS SOUTHEAST TEXAS

CITY           SKY/WX    TMP DP  RH WIND       PRES   REMARKS
BEAUMONT       CLOUDY    45  39  79 S5        30.02S
BEAUMONT CITY  FAIR      48  37  66 S3        30.02F
ORANGE         CLOUDY    47  42  82 CALM      30.04S
JASPER         CLOUDY    47  39  74 CALM      30.01F
$$

ACROSS CENTRAL LOUISIANA

CITY           SKY/WX    TMP DP  RH WIND       PRES   REMARKS
LEESVILLE      CLOUDY    49  35  59 S7        29.97F
FULLERTON      FAIR      46  36  68 VRB3      29.96F
ALEXANDRIA INT CLOUDY    46  34  62 S6        29.97S
ESLER FIELD    CLOUDY    46  34  62 SW5       29.97F
DERIDDER       FAIR      49  33  54 CALM      30.02F
OAKDALE        CLOUDY    39  37  92 CALM      30.01S
OPELOUSAS      FAIR      47  40  75 SW5       30.02F
$$

ACROSS SOUTHWEST AND SOUTH CENTRAL LOUISIANA

CITY           SKY/WX    TMP DP  RH WIND       PRES   REMARKS
SULPHUR        CLOUDY    49  43  80 SW3       30.04S
LAKE CHARLES   CLOUDY    47  43  86 CALM      30.02F
CHENNAULT INT  NOT AVBL
CAMERON PHI    CLEAR     55  45  67 W5        30.04R
DEQUINCY       FAIR      44  39  84 CALM      30.02F
JENNINGS       FAIR      51  42  73 SW3       30.03S
LAFAYETTE      CLOUDY    51  41  68 SW3       30.03S
NEW IBERIA     PTCLDY    50  43  77 SW3       30.04S
ABBEVILLE      FAIR      47  44  88 CALM      30.04R
PATTERSON      CLOUDY    48  42  80 CALM      30.05S
SALT POINT       N/A     50  46  86 CALM      30.03F
$$

SELECTED SITES ACROSS THE REGION

CITY           SKY/WX    TMP DP  RH WIND       PRES   REMARKS
HOUSTON BUSH   CLOUDY    52  35  52 S5        30.01F
HOUSTON HOBBY  CLOUDY    52  36  54 S3        30.01F
GALVESTON      PTCLDY    55  39  54 SW6       30.03F
COLLEGE STAT   CLOUDY    52  36  54 S7        29.98F
CONROE         CLOUDY    50  38  63 S7        30.00F
HUNTSVILLE     CLOUDY    50  36  58 S6        29.98F
LUFKIN         CLOUDY    45  36  70 SE3       29.98F
SHREVEPORT     PTCLDY    54  31  41 SW10      29.92R
MONROE         CLEAR     50  31  48 S9        29.93R
NATCHEZ MS     CLOUDY    50  29  44 S6        29.98S
BATON ROUGE    PTCLDY    51  38  60 SW9       30.02S
N.O. INTL ARPT CLOUDY    53  37  54 SW6       30.03S
SLIDELL        CLOUDY    45  40  82 CALM      30.02S
$$

MARINE REPORTS

STATION/POSITION TIME  SKY/WX   TEMP    WIND        PRES    VSBY
                                AIR SEA DIR/SP/G
                 (UTC)          (F)     (DEG/KT/KT) (MB)    (MI)
BUOY 30 S HIGH I 2350            58 60  250/ 10/ 12 1017.0
WVE H/P(F/S)=  1/ 3

SEA RIM ST PARK  0000            54     270/  7/  7 1017.3F
PORT ARTHUR      0048                   200/  4/  5 1016.8R
SABINE PASS N    0048                   270/  3/  5 1018.2S
TEXAS POINT      NOT AVBL
CALCASIEU PASS   0048            57 60  260/  7/  9 1015.7S
LK CHARLES BEACH 0042            53 57              1016.3R
MARSH ISLAND     0000            58                   N/A
FRESH WATER LOCK 0042            56 57  240/  5/  6 1017.1S
AMERADA PASS     0042            52 53     CALM     1016.9F
$$




USA.gov is the U.S. government's official web portal to all federal, state and local government web resources and services.